Weather History for St. Petersburg, FL

Change the Weather History Date:

Wednesday, October 24, 2012

  Actual Average Record
Temperature  
Mean Temperature 78 °F -  
Max Temperature 84 °F 82 °F 89 °F (1985)
Min Temperature 73 °F 68 °F 55 °F (1982)
Cooling Degree Days 14    
Growing Degree Days 28 (Base 50)    
Moisture  
Dew Point 70 °F    
Average Humidity 79    
Maximum Humidity 91    
Minimum Humidity 65    
Precipitation  
Precipitation 0.00 in - - ()
Sea Level Pressure  
Sea Level Pressure 29.96 in    
Wind  
Wind Speed 14 mph (ENE)    
Max Wind Speed 23 mph    
Max Gust Speed -    
Visibility 10 miles    
Events      
Averages and records for this station are not official NWS values.
T = Trace of Precipitation, MM = Missing Value Source: NWS Daily Summary

Daily Weather History Graph

Daily Weather History Graph

Search for Another Location

Airport:

Trip Planner

Search our weather history database for the weather conditions in past years. The results will help you decide how hot, cold, wet, or windy it might be!

Date:

Astronomy

Oct. 24, 2012 Rise Set
Actual Time 7:36 AM EDT 6:52 PM EDT
Civil Twilight 7:12 AM EDT 7:16 PM EDT
Nautical Twilight 6:45 AM EDT 7:43 PM EDT
Astronomical Twilight 6:17 AM EDT 8:10 PM EDT
Moon 3:46 PM EDT (10/24) 2:55 AM EDT (10/24)
Length of Visible Light 12h 03m
Length of Day
11h 16m
Waxing Gibbous, 76% of the Moon is Illuminated
Oct 24
Waxing Gibbous
Oct 29
Full
Nov 6
Last Quarter
Nov 13
New
Nov 20
First Quarter

Hourly Weather History & Observations

Time (EDT) Temp. Heat Index Dew Point Humidity Pressure Visibility Wind Dir Wind Speed Gust Speed Precip Events Conditions
12:53 AM 75.0 °F - 66.9 °F 76% 30.01 in 10.0 mi ENE 15.0 mph - N/A   Clear
1:53 AM 73.9 °F - 66.9 °F 79% 30.00 in 10.0 mi ENE 12.7 mph - N/A   Clear
2:53 AM 73.0 °F - 66.9 °F 81% 29.98 in 10.0 mi ENE 12.7 mph - N/A   Clear
3:53 AM 73.0 °F - 66.9 °F 81% 29.96 in 10.0 mi NE 11.5 mph - N/A   Clear
4:53 AM 73.0 °F - 68.0 °F 84% 29.96 in 10.0 mi NE 8.1 mph - N/A   Mostly Cloudy
5:53 AM 73.0 °F - 68.0 °F 84% 29.96 in 10.0 mi NE 11.5 mph - N/A   Overcast
6:53 AM 73.9 °F - 70.0 °F 87% 29.99 in 10.0 mi ENE 23.0 mph - N/A   Overcast
7:53 AM 73.9 °F - 71.1 °F 91% 29.99 in 10.0 mi ENE 13.8 mph - N/A   Overcast
8:53 AM 73.9 °F - 70.0 °F 87% 30.00 in 10.0 mi NE 16.1 mph - N/A   Overcast
9:53 AM 75.0 °F - 71.1 °F 87% 30.01 in 10.0 mi ENE 11.5 mph - N/A   Overcast
10:53 AM 75.9 °F - 71.1 °F 85% 30.01 in 10.0 mi ENE 16.1 mph - N/A   Overcast
11:53 AM 79.0 °F - 72.0 °F 79% 30.00 in 10.0 mi East 15.0 mph - N/A   Mostly Cloudy
12:53 PM 81.0 °F 85.2 °F 72.0 °F 74% 29.97 in 10.0 mi East 11.5 mph - N/A   Clear
1:53 PM 82.0 °F 86.7 °F 72.0 °F 71% 29.94 in 10.0 mi East 11.5 mph - N/A   Mostly Cloudy
2:53 PM 84.0 °F 90.2 °F 73.0 °F 69% 29.91 in 10.0 mi East 6.9 mph - N/A   Mostly Cloudy
3:53 PM 82.9 °F 88.0 °F 72.0 °F 69% 29.90 in 10.0 mi East 10.4 mph - N/A   Partly Cloudy
5:53 PM 82.0 °F 85.5 °F 69.1 °F 65% 29.89 in 10.0 mi ENE 13.8 mph - N/A   Partly Cloudy
6:53 PM 80.1 °F 84.2 °F 73.0 °F 79% 29.90 in 10.0 mi East 9.2 mph - N/A   Clear
7:53 PM 80.1 °F 83.6 °F 71.1 °F 74% 29.92 in 10.0 mi East 13.8 mph - N/A   Clear
9:53 PM 78.1 °F - 70.0 °F 76% 29.95 in 10.0 mi ENE 20.7 mph - N/A   Clear
10:53 PM 75.9 °F - 71.1 °F 85% 29.95 in 10.0 mi ENE 17.3 mph - N/A   Clear
11:53 PM 75.9 °F - 70.0 °F 82% 29.93 in 10.0 mi NE 15.0 mph - N/A   Clear